Tracking 28081 objects as of 27-Sep-2023
HD Live streaming from Space Station
objects crossing your sky now

STARLINK-1538

Track STARLINK-1538 now!
10-day predictions
STARLINK-1538 is classified as:


NORAD ID: 46071
Int'l Code: 2020-055AW
Perigee: 553.4 km
Apogee: 555.3 km
Inclination: 53.1 °
Period: 95.6 minutes
Semi major axis: 6925 km
RCS: Unknown
Launch date: August 7, 2020
Source: United States (US)
Launch site: AIR FORCE EASTERN TEST RANGE (AFETR)
Your satellite tracking list
Your tracking list is empty




NASA's NSSDC Master Catalog

Two Line Element Set (TLE):
1 46071U 20055AW  23269.94781136  .00008689  00000-0  60149-3 0  9995
2 46071  53.0544 153.2704 0001356  92.4467 267.6678 15.06400295173915
Source of the keplerian elements: AFSPC